Regional Weather Roundup
Issued by NWS Green Bay, WI

Home | Current Version | Previous Version | Graphics & Text | Print | Product List | Glossary Off
Versions: 1 2 3 4 5 6 7 8 9 10 11 12 13 14 15 16 17 18 19 20 21 22 23 24 25 26 27 28 29 30 31 32 33 34 35 36 37 38 39 40 41 42 43 44 45 46 47 48 49 50

000
ASUS43 KGRB 280411
RWRGRB

NORTH-CENTRAL AND NORTHEAST WISCONSIN REGIONAL WEATHER ROUNDUP
NATIONAL WEATHER SERVICE GREEN BAY WI
1100 PM CDT MON MAR 27 2017

WIZ005-009-010>012-018-019-280500-
NORTH CENTRAL WISCONSIN

CITY           SKY/WX    TMP DP  RH WIND       PRES   REMARKS
IRONWOOD       CLEAR     27  24  89 CALM      30.04R
MANITOWISH WTR CLEAR     30  30 100 CALM      30.01S
ARBOR VITAE    CLEAR     34  31  88 CALM      30.00S
EAGLE RIVER    CLEAR     28  28 100 CALM      30.01R
LAND O LAKES   PTCLDY    31  30  96 CALM      30.02S
RHINELANDER    CLEAR     35  31  85 CALM      30.01R
PHILLIPS       CLEAR     30  29  94 N3        30.01R
ANTIGO         CLEAR     32  32 100 NE3       30.01R FOG
TOMAHAWK       CLEAR     28  27  96 CALM      30.02R
MERRILL        FOG       28  28 100 CALM      30.02R VSB 3/4
$$

WIZ013-073-280500-
NORTHEAST WISCONSIN

CITY           SKY/WX    TMP DP  RH WIND       PRES   REMARKS
IRON MOUNTAIN  FOG       30  28  92 CALM      30.00R VSB 3/4
MARINETTE        N/A    N/A N/A N/A MISG        N/A
OCONTO         CLOUDY    36  35  93 CALM      30.02R
$$

WIZ017-030-035>037-045-280500-
CENTRAL WISCONSIN

CITY           SKY/WX    TMP DP  RH WIND       PRES   REMARKS
MEDFORD        FOG       31  31  99 CALM      30.00R VSB 1/2
WAUSAU         PTCLDY    33  33 100 CALM      30.00R
MOSINEE        CLEAR     36  36 100 NE3       30.01R
MARSHFIELD     CLEAR     36  34  92 CALM      29.99R
WISC RAPIDS    MOCLDY    39  39 100 CALM      30.01S
STEVENS POINT  CLOUDY    34  34 100 CALM      30.01R FOG
WAUPACA        CLOUDY    42  41  96 CALM      30.01S
SHAWANO        MOCLDY    38  36  89 CALM      30.02R
CLINTONVILLE   CLOUDY    39  37  93 CALM      30.02R
WAUTOMA        CLOUDY    41  40  96 N3        30.02R
$$

WIZ038-039-048-051-280500-
FOX VALLEY

CITY           SKY/WX    TMP DP  RH WIND       PRES   REMARKS
NWS GREEN BAY  CLOUDY    39  38  96 CALM      30.01S
APPLETON       CLOUDY    39  37  93 CALM      29.99S
OSHKOSH        CLOUDY    40  36  86 NE3       30.00S
FOND DU LAC    CLOUDY    41  36  82 NE6       30.00S
$$

WIZ022-050-052-280500-
EAST CENTRAL WISCONSIN

CITY           SKY/WX    TMP DP  RH WIND       PRES   REMARKS
EPHRAIM        CLOUDY    37  37  99 CALM      30.01R
WASHINGTON ISL CLOUDY    35  33  93 N3        30.02R
STURGEON BAY   CLOUDY    38  36  92 N3        30.00R
MANITOWOC      CLOUDY    38  35  89 CALM      30.02R
SHEBOYGAN      CLOUDY    37  34  89 CALM      30.01S
$$

LMZ563-521-522-541>543-280500-
LAKESHORE

STATION/POSITION TIME  TEMP    WIND        PRES    VSBY  WAVE
                       AIR SEA DIR/SP/G                  HT/PER
                 (UTC) (F)     (DEG/KT/KT) (MB)    (MI)  (FT/S)
SHEBOYGAN LKSHOR 0400   37     340/  5/  6 1016.5R
KEWAUNEE LKSHORE 0348   37      CALM  /  2 1015.9R
NORTHPORT PIER   0340   36     320/  3/  4 1016.6R
CHAMBERS ISLAND  0340   34      CALM  /  1 1016.3R
MENOMINEE LKSHOR 0348   34     310/  2/  3 1015.7R
$$




USA.gov is the U.S. government's official web portal to all federal, state and local government web resources and services.